Location: Glasgow
(55.8642°N, 4.2518°W)
Time: 15:56:25
(UTC+01:00)

N. Korean satellite - Visible Passes

Search period start: 23 October 2017 00:00
Search period end: 01 November 2017 23:00
Orbit: 459 x 517 km, 97.2° (Epoch: 22 October)

Date Brightness Start Highest point End Pass type
(mag) Time Alt. Az. Time Alt. Az. Time Alt. Az.
23 Oct 10.0 07:06:20 10° NE 07:08:10 14° E 07:10:02 10° ESE visible
23 Oct 7.3 19:22:12 10° S 19:25:37 55° W 19:29:03 10° NNW visible
24 Oct 6.4 18:58:45 10° SSE 19:02:14 83° ENE 19:05:43 10° NNW visible
24 Oct 10.0 20:35:06 10° WSW 20:36:18 11° W 20:37:31 10° WNW visible
25 Oct 6.7 18:35:33 10° SE 18:38:55 47° ENE 18:42:15 10° N visible
25 Oct 9.4 20:10:10 10° SW 20:12:41 19° W 20:15:14 10° NW visible
26 Oct 9.5 07:29:01 10° NE 07:31:51 23° E 07:34:42 10° SSE visible
26 Oct 8.5 19:46:03 10° SSW 19:49:10 31° W 19:52:18 10° NNW visible
27 Oct 10.0 07:06:20 10° NE 07:08:16 14° E 07:10:12 10° ESE visible
27 Oct 7.3 19:22:18 10° S 19:25:41 54° W 19:29:06 10° NNW visible
28 Oct 6.4 18:58:49 10° SSE 19:02:17 84° ENE 19:05:46 10° NNW visible
28 Oct 10.0 20:35:14 10° WSW 20:36:22 11° W 20:37:31 10° WNW visible
29 Oct 6.7 17:35:36 10° SE 17:38:56 47° ENE 17:42:18 10° N visible
29 Oct 9.4 19:10:14 10° SW 19:12:45 19° W 19:15:15 10° NW visible
30 Oct 9.5 06:29:01 10° NE 06:31:55 23° E 06:34:48 10° SSE visible
30 Oct 8.5 18:46:06 10° SSW 18:49:11 30° W 18:52:19 10° NNW visible
31 Oct 9.9 06:06:18 10° NE 06:08:18 14° E 06:10:19 10° ESE visible
31 Oct 7.3 18:22:19 10° S 18:25:42 53° W 18:29:07 10° NNW visible
01 Nov 6.4 17:58:49 10° SSE 18:02:16 85° E 18:05:46 10° NNW visible
01 Nov 10.0 19:35:16 10° WSW 19:36:22 11° W 19:37:28 10° WNW visible
